Regional Weather Roundup
Issued by NWS Green Bay, WI

Home | Current Version | Previous Version | Text Only | Print | Product List | Glossary On
Versions: 1 2 3 4 5 6 7 8 9 10 11 12 13 14 15 16 17 18 19 20 21 22 23 24 25 26 27 28 29 30 31 32 33 34 35 36 37 38 39 40 41 42 43 44 45 46 47 48 49 50
271
ASUS43 KGRB 211111
RWRGRB

NORTH-CENTRAL AND NORTHEAST WISCONSIN REGIONAL WEATHER ROUNDUP
NATIONAL WEATHER SERVICE GREEN BAY WI
500 AM CST SUN JAN 21 2018

WIZ005-009-010>012-018-019-211200-
NORTH CENTRAL WISCONSIN

CITY           SKY/WX    TMP DP  RH WIND       PRES   REMARKS
IRONWOOD       FAIR      25  24  96 N3        29.94S
MANITOWISH WTR FAIR      24  24 100 CALM      29.92S
ARBOR VITAE    FAIR      29  28  96 CALM      29.91F FOG
EAGLE RIVER    FAIR      26  26 100 CALM      29.91F FOG
LAND O LAKES   MOCLDY    24  24  97 CALM      29.93S
RHINELANDER    CLOUDY    32  30  92 CALM      29.92S
PHILLIPS       CLOUDY    29  29 100 CALM      29.91F
ANTIGO         CLOUDY    28  28  98 CALM      29.92S
TOMAHAWK       CLOUDY    30  28  94 CALM      29.93S
MERRILL        MOCLDY    29  29  99 CALM      29.93S FOG
$$

WIZ013-073-211200-
NORTHEAST WISCONSIN

CITY           SKY/WX    TMP DP  RH WIND       PRES   REMARKS
IRON MOUNTAIN  CLOUDY    29  26  89 S3        29.92F
MARINETTE      MOCLDY    31  29  92 CALM      29.96S
OCONTO         CLOUDY    29  28  96 CALM      29.95S
$$

WIZ017-030-035>037-045-211200-
CENTRAL WISCONSIN

CITY           SKY/WX    TMP DP  RH WIND       PRES   REMARKS
MEDFORD        CLOUDY    29  28  94 CALM      29.92R FOG
WAUSAU         FAIR      29  28  96 CALM      29.91F FOG
MOSINEE        FAIR      30  30 100 CALM      29.93F
MARSHFIELD     FAIR      27  26  96 CALM      29.91F FOG
WISC RAPIDS    FOG       23  20  88 CALM      29.95R VSB 1/4
STEVENS POINT  FAIR      23  23 100 CALM      29.94S FOG
WAUPACA        FAIR      26  24  93 CALM      29.95S FOG
SHAWANO        MOCLDY    31  29  92 CALM      29.95S
CLINTONVILLE   FAIR      27  25  93 CALM      29.94S FOG
WAUTOMA        FAIR      22  20  92 CALM      29.95S FOG
$$

WIZ038-039-048-051-211200-
FOX VALLEY

CITY           SKY/WX    TMP DP  RH WIND       PRES   REMARKS
NWS GREEN BAY  FAIR      29  27  92 CALM      29.95S FOG
APPLETON       FAIR      30  28  93 CALM      29.93R FOG
OSHKOSH        FAIR      26  24  92 CALM      29.94S FOG
FOND DU LAC    FAIR      25  22  88 S5        29.95R FOG
$$

WIZ022-050-052-211200-
EAST CENTRAL WISCONSIN

CITY           SKY/WX    TMP DP  RH WIND       PRES   REMARKS
EPHRAIM        PTSUNNY   34  30  84 SW3       29.95S
WASHINGTON ISL CLOUDY    31  30  96 CALM      29.96S FOG
STURGEON BAY   CLOUDY    30  28  92 CALM      29.96F
MANITOWOC      FAIR      25  24  96 S5        29.97S FOG
SHEBOYGAN      FAIR      24  24 100 CALM      29.96S FOG
$$

LMZ563-521-522-541>543-211200-
LAKESHORE

STATION/POSITION TIME  TEMP    WIND        PRES    VSBY  WAVE
                       AIR SEA DIR/SP/G                  HT/PER
                 (UTC) (F)     (DEG/KT/KT) (MB)    (MI)  (FT/S)
SHEBOYGAN LKSHOR 1100   32     230/  4/  4 1015.2R
KEWAUNEE LKSHORE 1042   29     290/  1/  2 1013.6F
NORTHPORT PIER   1040   33        CALM     1014.6S
SISTER BAY LKSHO 1020   33        CALM       N/A
MENOMINEE LKSHOR 1036   31     180/  5/  7 1014.2R
$$




USA.gov is the U.S. government's official web portal to all federal, state and local government web resources and services.